Temperature
25 25 25 25 25 25 24 24 23 24 24 24 25 24 24 24 23 22 21 21 20 20 19 18 18 18 18 18 17 17 17 17 17 16 16 16 16 16 16 16 15 15 15 15
25 26 25 25 25 25 25 25 25 24 24 25 25 25 24 24 23 22 21 21 20 20 19 19 18 18 18 18 17 17 17 17 17 16 16 16 16 16 16 15 15 15 15 15
24 25 25 24 25 25 25 25 25 24 25 25 25 25 24 24 23 22 22 21 20 20 19 19 19 18 18 18 17 17 17 17 17 16 16 16 16 16 15 15 15 15 15 15
24 24 22 25 27 26 25 25 26 25 25 25 25 24 24 23 23 22 22 21 21 20 20 19 19 19 18 18 17 17 17 17 16 16 16 16 16 16 15 15 15 15 14 14
23 23 23 25 26 26 25 25 26 25 25 25 25 24 24 23 23 22 22 21 21 20 20 20 19 19 18 18 18 17 17 17 17 17 16 16 16 16 15 15 15 15 14 14
23 22 22 25 26 26 26 24 26 26 25 25 25 23 23 23 22 22 21 21 21 20 20 20 20 19 19 18 18 17 17 17 16 16 16 16 16 15 15 15 15 14 14 14
22 23 24 25 26 26 24 24 25 26 25 25 24 24 23 22 22 21 21 20 20 20 20 20 19 19 18 18 17 17 17 16 16 16 16 16 16 15 15 15 14 14 14 14
23 22 23 25 26 25 25 26 26 25 25 25 24 23 23 22 21 21 20 20 20 20 19 19 19 19 18 18 17 17 17 16 16 16 16 16 15 15 15 14 14 14 14 14
24 23 25 25 25 25 25 25 25 25 24 24 23 23 22 21 21 20 20 20 19 19 19 19 18 18 18 18 17 17 17 16 16 16 16 15 15 15 14 14 14 14 13 13
24 24 25 25 25 25 24 24 24 24 24 23 23 22 21 21 20 20 19 19 19 19 19 18 18 18 18 17 17 17 16 16 16 16 15 15 15 14 14 14 14 13 13 13
24 25 25 24 24 24 24 24 23 23 23 23 22 22 21 21 20 19 19 19 19 18 18 18 17 17 17 17 17 16 16 16 15 15 15 15 14 14 14 14 14 13 13 13
23 24 24 24 23 23 23 23 23 23 22 22 22 21 21 20 20 19 19 18 18 18 18 17 17 17 17 16 16 16 15 15 15 15 14 14 14 14 13 13 13 13 13 12
24 23 23 23 23 22 22 22 22 22 22 21 21 21 20 20 19 19 18 18 18 17 17 17 17 16 16 16 16 15 15 15 15 14 14 14 14 13 13 13 13 12 12 12
23 22 22 22 22 22 22 21 21 21 21 20 20 20 20 19 19 18 18 18 17 17 17 16 16 16 16 16 15 15 15 15 14 14 14 13 13 13 13 13 12 12 12 12
22 22 22 21 21 21 21 21 21 20 20 20 19 19 19 19 18 18 17 17 17 16 16 16 16 16 16 15 15 15 15 14 14 14 13 13 13 12 12 12 12 12 12 11
21 21 21 21 20 20 20 20 20 20 19 19 18 18 18 18 17 17 17 16 16 16 16 16 15 15 15 15 15 14 14 14 14 13 13 13 12 12 12 11 11 11 11 11
20 20 20 20 20 20 20 20 19 19 19 18 18 17 17 17 16 16 16 16 15 15 15 15 15 15 15 14 14 14 14 13 13 13 12 12 12 11 11 11 11 11 10 10
19 19 19 19 19 19 19 19 19 18 18 18 17 16 16 16 16 16 15 15 15 15 14 14 14 14 14 14 13 13 13 13 12 12 12 12 11 11 11 10 10 10 10 9
18 19 19 19 19 18 18 18 18 17 17 17 16 16 16 15 15 15 15 14 14 14 14 14 14 14 13 13 13 13 12 12 12 11 11 11 11 10 10 10 10 9 9 9
17 18 18 18 18 17 17 17 17 16 16 16 16 15 15 15 15 14 14 14 14 13 13 13 13 13 13 12 12 12 12 11 11 11 11 10 10 10 9 9 9 9 8 8
16 16 16 16 16 16 16 16 16 16 15 15 15 15 14 14 14 14 13 13 13 13 13 12 12 12 12 12 12 11 11 11 10 10 10 10 9 9 9 8 8 8 8 7
15 15 15 15 15 15 15 15 15 15 15 14 14 14 14 13 13 13 12 12 12 12 12 12 12 12 11 11 11 11 10 10 10 9 9 9 9 8 8 8 8 7 7 7
14 14 14 14 14 14 14 14 14 14 14 14 13 13 13 13 12 12 12 11 11 11 11 11 11 11 11 10 10 10 9 9 9 9 8 8 8 8 7 7 7 6 6 6
13 13 14 14 14 13 13 13 13 13 13 13 13 12 12 12 11 11 11 11 10 10 10 10 10 10 10 9 9 9 9 8 8 8 8 7 7 7 7 6 6 6 6 5
13 13 13 13 13 12 12 12 12 12 12 11 11 11 11 11 11 10 10 10 9 9 9 9 9 9 9 8 8 8 8 7 7 7 7 7 6 6 6 6 5 5 5 5
11 11 12 12 12 11 11 11 11 10 10 10 10 10 9 9 9 9 9 9 8 8 8 8 8 8 8 8 7 7 7 7 6 6 6 6 6 5 5 5 5 4 4 4
10 10 10 10 10 10 10 10 10 10 9 9 9 9 9 8 8 8 8 8 8 8 7 7 7 7 7 7 6 6 6 6 6 5 5 5 5 5 4 4 4 4 3 3
Wind_Speed
5 4 4 6 6 7 7 6 4 2 1 0 4 6 6 7 9 10 10 10 10 9 10 9 9 8 8 8 8 8 7 6 5 5 4 4 4 3 2 2 2 1 2 2
6 6 5 6 7 8 8 7 6 4 2 2 4 5 6 7 9 10 10 10 10 10 10 10 10 9 9 8 8 8 8 6 5 5 4 4 4 3 3 2 1 1 2 3
6 6 7 8 8 8 7 6 5 4 1 2 3 4 5 6 7 9 9 9 10 10 10 10 10 10 9 9 8 8 8 7 6 5 5 5 4 3 3 3 2 1 1 2
6 6 7 4 2 3 4 5 4 2 1 2 3 5 4 5 6 7 8 8 8 9 9 9 9 9 9 9 8 8 7 7 6 6 5 5 4 4 3 3 3 3 2 2
5 7 6 5 4 4 4 4 3 3 4 3 5 6 4 5 5 5 6 7 6 7 8 9 9 9 9 9 8 7 7 7 6 6 6 6 5 4 3 3 3 3 3 3
6 7 6 3 3 3 2 4 2 3 3 4 5 4 4 6 6 6 6 6 6 5 5 7 7 8 9 8 7 7 7 6 6 6 6 6 6 5 4 3 4 3 3 4
9 8 5 1 4 4 3 1 3 3 2 3 3 2 6 8 7 6 6 6 6 5 5 5 6 8 8 7 7 7 6 6 6 6 6 6 5 4 4 4 4 3 4 4
9 9 5 3 5 3 1 2 2 3 2 3 4 6 7 8 7 6 6 7 6 6 5 5 5 6 7 6 6 6 6 6 6 6 6 6 5 4 4 4 4 4 3 3
4 3 2 1 1 1 1 1 1 2 3 4 5 6 7 7 7 7 6 6 6 6 6 5 5 5 5 5 5 7 7 6 6 6 5 5 5 5 4 4 3 3 3 3
6 5 4 3 3 1 1 1 2 3 3 3 5 6 7 7 7 7 6 6 6 6 6 5 5 5 5 5 5 6 7 6 5 5 5 4 3 3 3 3 3 3 3 2
7 4 3 4 3 2 2 1 1 2 2 3 4 5 6 7 7 6 6 6 6 6 5 5 5 5 5 5 5 5 6 5 5 4 5 4 3 2 3 2 4 4 3 3
5 4 3 2 4 3 3 2 2 2 2 3 3 4 6 6 6 6 7 6 6 6 5 5 5 5 4 4 4 5 5 5 4 4 4 4 4 2 2 2 3 4 3 3
5 2 1 0 2 3 3 2 1 2 3 3 3 4 5 6 7 7 7 6 6 6 5 5 5 5 4 4 3 3 4 4 4 4 4 4 4 4 2 1 2 2 2 2
2 1 2 2 1 2 2 2 3 3 3 3 3 4 6 7 7 7 7 6 6 6 6 5 5 5 4 3 3 2 3 4 4 3 4 4 4 4 4 4 2 1 1 3
4 4 3 2 2 3 3 3 4 4 4 4 4 5 6 7 7 7 6 6 6 6 6 6 5 4 3 3 3 3 2 2 3 3 3 3 3 3 3 3 3 2 2 1
5 4 4 4 5 5 5 5 5 5 5 5 5 5 6 7 6 6 6 6 6 6 6 6 5 4 4 4 3 3 2 3 3 2 2 2 2 2 2 2 2 2 2 2
5 5 5 5 5 5 5 5 5 5 5 6 6 6 6 6 7 7 6 5 5 5 6 5 5 4 4 3 4 3 2 3 3 2 2 2 2 2 2 2 2 2 2 2
6 6 6 6 5 5 5 4 4 4 5 6 7 6 6 6 7 7 6 6 5 5 5 5 5 4 3 3 3 3 2 2 2 2 1 1 2 1 1 2 2 2 1 2
7 6 5 6 5 5 4 4 4 4 5 6 7 7 6 5 5 6 6 5 5 5 4 5 5 3 3 4 3 2 2 2 2 2 2 2 2 1 1 2 1 1 1 1
5 4 4 4 4 4 4 4 4 4 5 6 6 7 6 5 5 5 5 5 4 4 4 4 3 3 3 4 3 2 2 2 2 2 2 2 1 1 1 1 1 1 1 1
4 3 3 3 3 3 4 5 5 5 5 5 6 7 6 6 6 5 5 5 4 6 5 4 3 3 3 3 2 1 1 1 1 1 1 1 1 0 0 0 0 0 0 0
4 4 4 4 4 4 4 4 5 6 6 5 6 6 6 6 6 5 5 4 5 7 5 3 3 4 4 3 2 2 1 1 1 1 1 1 1 0 0 0 0 1 1 1
4 4 4 5 5 5 5 5 6 6 6 6 6 6 6 6 5 5 5 4 5 7 4 3 5 6 4 2 2 2 2 2 2 2 2 1 1 1 1 1 1 1 1 1
3 4 4 4 5 5 5 5 6 5 6 6 6 6 6 5 4 4 5 7 7 6 4 6 7 5 3 2 2 2 3 3 2 2 2 2 1 2 2 2 2 2 2 2
3 3 4 5 5 4 5 6 7 6 6 6 6 6 5 5 5 5 6 6 7 6 5 6 6 5 3 2 3 3 3 3 3 2 2 2 2 2 2 2 2 2 2 2
3 3 3 4 4 4 5 5 5 5 6 6 6 5 5 5 6 6 6 6 6 6 4 3 4 4 3 3 4 3 3 3 3 3 2 2 2 2 2 2 3 2 2 2
4 4 4 4 4 4 5 5 5 5 6 6 6 6 5 6 6 6 6 5 5 4 4 4 3 3 3 3 3 3 3 3 3 3 3 3 3 2 2 3 2 3 3 3
Wind_Direction
266 257 233 231 232 236 246 262 275 311 73 176 133 129 135 141 144 149 155 160 162 163 165 166 171 172 169 165 164 162 162 168 173 170 163 163 157 164 175 171 156 154 129 119
262 254 241 240 232 233 237 248 260 268 285 108 119 123 132 141 151 157 163 167 166 168 168 172 175 175 169 165 167 163 165 172 172 166 160 164 159 156 160 150 151 145 138 133
263 255 248 239 230 226 231 239 250 254 253 113 128 135 135 140 153 163 167 168 169 172 173 174 177 175 169 169 169 167 167 168 167 166 164 159 157 160 164 158 149 143 139 137
259 259 256 242 191 202 225 238 249 248 203 170 143 126 126 139 153 159 161 164 168 173 172 173 176 171 168 166 167 167 166 166 165 164 163 159 163 170 171 167 172 176 177 174
257 259 262 247 202 190 217 231 227 228 204 181 152 144 144 136 136 138 143 152 161 171 169 169 170 167 165 167 167 166 166 169 170 167 165 165 170 174 172 178 185 182 188 189
249 254 258 238 153 140 223 236 191 184 178 171 167 173 156 136 129 131 132 138 146 152 154 159 160 155 159 163 164 166 164 168 166 163 164 169 173 175 172 183 192 184 194 196
245 252 255 190 138 152 219 199 135 142 154 168 172 131 124 124 123 126 129 130 135 137 133 139 144 149 155 160 167 165 159 158 156 157 163 165 169 174 172 179 185 192 202 201
233 241 235 172 170 193 94 74 118 128 129 132 112 114 119 121 124 129 132 132 132 129 123 124 130 143 151 158 160 153 150 151 156 159 164 168 166 172 172 175 185 198 206 205
229 223 169 162 162 193 10 356 57 94 109 129 136 138 130 128 130 132 134 134 134 133 133 133 135 140 146 145 143 147 148 153 158 156 154 153 158 167 172 176 181 196 203 210
235 216 198 194 202 169 73 17 47 69 97 141 152 148 137 134 135 136 137 136 137 138 141 139 135 135 139 138 139 143 150 154 154 154 153 154 152 160 163 173 183 193 199 204
245 238 213 195 181 173 161 148 100 98 121 147 152 153 150 145 142 138 131 133 139 142 139 142 137 131 131 138 147 154 154 153 155 154 153 149 136 138 163 174 181 186 199 196
251 249 250 211 173 177 173 171 162 146 141 147 155 154 152 146 138 134 135 135 133 128 131 137 132 128 127 137 153 159 159 159 158 154 151 147 143 125 83 128 142 162 169 170
273 306 309 164 144 159 174 175 159 150 146 148 152 147 146 135 132 133 135 137 138 139 142 137 132 133 132 135 141 154 156 152 148 152 157 160 160 162 162 77 67 106 134 152
265 257 259 209 147 152 161 154 133 128 126 128 130 129 129 129 131 135 140 139 136 135 134 129 125 123 124 130 138 148 142 146 147 153 158 166 174 178 177 175 177 207 237 210
249 244 242 214 182 195 177 163 158 154 144 132 125 129 134 135 137 137 133 130 131 135 136 130 125 123 125 129 129 125 118 123 125 133 152 170 174 175 176 179 177 179 172 207
244 239 233 218 207 205 196 189 180 169 157 146 143 142 142 138 135 134 133 136 142 145 139 132 129 127 126 126 123 121 121 136 139 147 163 171 170 170 178 183 186 184 184 185
231 224 223 224 213 205 203 197 183 171 162 152 144 142 141 139 138 138 138 141 142 136 132 132 129 127 129 132 130 129 127 139 150 159 170 165 159 166 174 173 183 190 192 177
238 230 221 220 216 209 202 189 180 167 155 146 141 145 152 155 154 148 143 140 134 124 118 115 115 126 134 129 124 124 135 149 160 166 156 150 150 160 178 186 189 197 190 173
244 237 222 213 205 199 195 178 169 161 152 148 149 152 153 152 148 142 140 140 136 131 120 108 117 136 134 124 120 131 150 159 162 161 157 160 173 190 192 190 188 185 166 155
241 235 217 203 188 183 179 167 159 154 152 152 151 147 148 150 145 142 142 135 128 125 117 115 133 138 127 111 105 136 155 166 170 164 160 161 177 197 183 170 177 174 172 199
213 208 192 184 172 171 174 168 160 156 151 154 156 154 154 151 145 144 141 134 120 109 113 121 127 112 104 99 104 133 148 152 151 148 141 146 163 161 116 85 60 41 349 315
203 200 194 180 171 171 167 164 153 146 145 146 145 144 142 140 136 133 125 125 123 118 121 126 118 104 98 93 125 131 133 130 117 103 99 102 114 127 121 59 56 41 22 13
200 198 188 179 174 170 164 160 150 146 147 147 146 144 139 135 136 136 130 119 120 119 120 117 110 107 103 109 123 115 109 101 94 88 83 78 72 69 58 40 42 38 22 21
182 178 173 163 156 153 148 136 129 130 128 126 126 127 128 125 118 110 113 120 122 122 119 122 117 111 108 121 119 110 101 93 89 84 80 75 64 57 56 53 47 40 32 32
148 145 143 145 148 143 134 127 122 120 119 117 113 110 113 117 121 118 117 118 120 116 117 122 119 118 120 114 107 98 92 90 87 83 82 75 67 62 58 55 53 46 40 41
122 122 121 122 118 117 123 124 126 125 124 120 113 108 107 107 108 111 114 118 118 115 113 117 123 125 114 96 90 87 88 94 89 83 83 82 78 73 67 61 51 46 48 52
112 109 107 108 103 105 112 118 122 124 124 124 121 115 111 110 111 114 115 118 118 116 112 109 105 103 95 91 87 84 82 82 84 84 83 81 77 72 63 52 54 58 60 58
Height
1488 1487 1488 1492 1493 1494 1497 1499 1504 1502 1499 1495 1493 1495 1497 1500 1503 1507 1511 1514 1517 1521 1524 1527 1530 1534 1537 1539 1542 1544 1546 1548 1550 1552 1553 1554 1555 1556 1556 1557 1558 1558 1559 1559
1490 1486 1486 1490 1490 1491 1493 1493 1494 1496 1497 1490 1492 1494 1497 1499 1502 1506 1509 1512 1516 1519 1522 1525 1528 1531 1534 1537 1540 1542 1544 1546 1548 1550 1551 1552 1553 1554 1555 1555 1556 1557 1557 1557
1495 1487 1488 1495 1487 1487 1488 1487 1490 1495 1493 1489 1492 1494 1496 1499 1501 1504 1507 1510 1513 1516 1520 1523 1526 1529 1532 1535 1538 1540 1542 1544 1546 1547 1549 1550 1551 1552 1553 1553 1554 1555 1555 1556
1493 1494 1507 1490 1476 1479 1483 1485 1485 1487 1488 1489 1491 1494 1496 1498 1500 1503 1505 1508 1511 1515 1518 1521 1524 1527 1530 1533 1535 1537 1539 1541 1543 1545 1546 1547 1549 1549 1550 1551 1552 1552 1553 1554
1494 1499 1495 1482 1475 1478 1483 1486 1482 1484 1486 1488 1490 1493 1496 1498 1499 1501 1504 1506 1509 1513 1516 1519 1521 1524 1527 1530 1532 1535 1537 1539 1541 1542 1544 1545 1546 1547 1548 1549 1550 1550 1551 1552
1493 1500 1502 1485 1474 1476 1481 1489 1481 1482 1484 1487 1489 1494 1496 1496 1498 1500 1502 1505 1508 1511 1514 1516 1519 1522 1525 1527 1530 1532 1534 1536 1538 1540 1541 1542 1543 1545 1546 1546 1547 1548 1549 1549
1492 1494 1486 1476 1474 1478 1492 1489 1480 1481 1483 1485 1488 1491 1493 1495 1497 1499 1501 1504 1506 1509 1512 1514 1517 1520 1522 1525 1527 1530 1532 1534 1536 1537 1539 1540 1541 1542 1543 1544 1545 1546 1546 1547
1484 1491 1490 1474 1475 1479 1481 1478 1479 1481 1483 1485 1487 1490 1492 1494 1496 1498 1500 1503 1505 1508 1510 1513 1515 1518 1520 1522 1525 1527 1529 1531 1533 1535 1536 1538 1539 1540 1541 1542 1542 1543 1544 1544
1475 1479 1473 1472 1474 1476 1477 1478 1479 1480 1483 1485 1487 1490 1492 1494 1495 1497 1500 1502 1504 1507 1509 1512 1514 1516 1518 1521 1523 1525 1527 1529 1531 1532 1534 1535 1536 1537 1538 1539 1540 1540 1541 1541
1468 1468 1469 1471 1473 1475 1476 1478 1479 1481 1483 1484 1486 1489 1491 1493 1495 1497 1499 1501 1503 1506 1508 1510 1512 1515 1517 1519 1521 1523 1525 1527 1528 1530 1531 1533 1534 1535 1535 1536 1537 1537 1538 1538
1465 1465 1467 1469 1472 1474 1476 1477 1479 1480 1482 1484 1485 1488 1490 1492 1494 1496 1498 1500 1502 1504 1506 1509 1511 1513 1515 1517 1519 1521 1523 1524 1526 1527 1528 1530 1531 1532 1533 1534 1534 1535 1535 1535
1465 1465 1466 1468 1470 1472 1474 1476 1478 1480 1481 1483 1484 1486 1488 1491 1493 1495 1497 1499 1501 1503 1505 1507 1509 1511 1513 1515 1517 1519 1520 1522 1523 1524 1526 1527 1528 1529 1530 1531 1532 1532 1532 1533
1462 1463 1465 1467 1468 1470 1472 1474 1476 1478 1480 1481 1483 1485 1487 1489 1491 1493 1496 1498 1500 1502 1504 1506 1507 1509 1511 1513 1515 1517 1518 1519 1521 1522 1523 1524 1524 1525 1526 1527 1528 1529 1529 1529
1460 1462 1464 1466 1467 1469 1471 1473 1475 1477 1478 1480 1481 1483 1485 1487 1489 1492 1494 1496 1498 1500 1502 1504 1506 1507 1509 1511 1513 1514 1516 1517 1518 1519 1520 1521 1522 1523 1523 1524 1524 1525 1526 1526
1459 1460 1462 1464 1466 1468 1470 1472 1473 1475 1477 1478 1480 1482 1484 1485 1487 1490 1492 1495 1497 1499 1501 1502 1504 1506 1507 1509 1510 1512 1513 1514 1516 1517 1517 1518 1519 1520 1521 1521 1522 1522 1522 1522
1456 1458 1460 1462 1463 1465 1468 1470 1471 1473 1475 1476 1478 1480 1482 1484 1486 1489 1491 1493 1495 1497 1498 1500 1502 1503 1505 1506 1508 1509 1510 1512 1513 1514 1515 1516 1517 1517 1518 1518 1518 1518 1518 1518
1454 1455 1457 1459 1460 1462 1465 1467 1469 1471 1473 1474 1476 1478 1481 1483 1485 1487 1489 1491 1493 1495 1496 1498 1499 1501 1502 1504 1505 1506 1507 1509 1510 1511 1512 1513 1514 1514 1515 1515 1515 1515 1515 1515
1450 1452 1454 1456 1457 1460 1462 1464 1466 1468 1470 1472 1474 1476 1479 1481 1482 1484 1487 1489 1491 1493 1494 1496 1497 1498 1500 1501 1502 1503 1504 1506 1507 1508 1509 1510 1510 1511 1511 1512 1512 1512 1512 1512
1446 1448 1450 1452 1454 1456 1459 1461 1463 1465 1467 1469 1472 1474 1476 1478 1480 1482 1484 1487 1488 1490 1492 1493 1495 1496 1497 1498 1499 1501 1502 1503 1504 1505 1506 1506 1507 1508 1508 1508 1509 1509 1509 1508
1442 1444 1446 1448 1450 1453 1455 1458 1460 1462 1465 1467 1469 1471 1474 1476 1478 1480 1482 1484 1485 1487 1489 1490 1492 1493 1494 1495 1496 1497 1499 1500 1501 1502 1503 1503 1504 1504 1505 1505 1505 1505 1505 1504
1439 1441 1443 1445 1447 1450 1452 1455 1457 1459 1462 1464 1466 1468 1471 1473 1475 1477 1479 1481 1483 1484 1486 1488 1489 1490 1491 1492 1493 1494 1495 1497 1498 1499 1500 1500 1501 1501 1501 1502 1502 1502 1501 1501
1436 1438 1440 1442 1444 1447 1450 1452 1454 1456 1459 1461 1463 1465 1468 1470 1472 1474 1476 1478 1480 1481 1483 1485 1486 1487 1488 1489 1490 1491 1492 1494 1495 1496 1496 1497 1497 1498 1498 1498 1498 1498 1498 1497
1434 1436 1438 1439 1442 1444 1447 1449 1451 1454 1456 1458 1460 1462 1465 1467 1469 1471 1473 1475 1477 1479 1480 1481 1483 1484 1486 1487 1487 1489 1490 1491 1492 1492 1493 1494 1494 1495 1495 1495 1495 1494 1494 1494
1432 1434 1435 1438 1440 1442 1444 1446 1449 1451 1453 1456 1458 1460 1462 1465 1467 1469 1471 1473 1475 1476 1478 1479 1480 1482 1483 1484 1485 1486 1487 1488 1489 1489 1490 1491 1491 1491 1492 1491 1491 1491 1490 1490
1430 1432 1434 1436 1438 1440 1442 1445 1447 1449 1452 1454 1456 1458 1461 1463 1464 1466 1468 1470 1473 1474 1476 1477 1479 1480 1481 1482 1483 1484 1485 1486 1486 1487 1487 1487 1488 1488 1488 1488 1488 1487 1487 1487
1429 1430 1432 1434 1436 1438 1441 1443 1445 1448 1450 1452 1454 1457 1459 1461 1463 1465 1467 1469 1471 1473 1474 1475 1477 1478 1479 1480 1481 1482 1482 1483 1484 1484 1485 1485 1485 1485 1485 1485 1485 1485 1484 1483
1428 1429 1431 1433 1436 1438 1440 1442 1444 1446 1449 1450 1453 1455 1458 1460 1462 1464 1466 1468 1469 1471 1472 1473 1475 1476 1477 1478 1479 1480 1480 1481 1482 1482 1482 1483 1483 1483 1483 1483 1482 1482 1481 1480